Location: Drummondville
(45.8830°N, 72.4830°W)
Time: 02:45:53
(UTC-05:00)

Vanguard 1 Rocket - All Passes

Search period start: 19 February 2018 00:00
Search period end: 01 March 2018 00:00
Orbit: 655 x 4222 km, 34.3° (Epoch: 18 February)

Date Brightness Start Highest point End Pass type
(mag) Time Alt. Az. Time Alt. Az. Time Alt. Az.
19 Feb - 01:51:18 10° W 02:16:25 61° S 02:36:46 10° ESE visible
19 Feb - 04:23:27 10° W 04:46:02 43° SW 05:01:19 10° SSE visible
19 Feb - 07:01:45 10° W 07:11:09 15° WSW 07:18:40 10° SSW daylight
19 Feb - 19:51:30 10° SSE 20:03:45 21° SE 20:19:08 10° E visible
19 Feb - 22:11:25 10° SW 22:30:45 48° SSE 22:54:26 10° E visible
20 Feb - 00:37:48 10° WSW 01:01:43 62° S 01:24:25 10° ESE visible
20 Feb - 03:08:14 10° W 03:32:49 53° SSW 03:50:51 10° SE visible
20 Feb - 05:42:43 10° W 06:00:01 27° SW 06:12:20 10° S visible
20 Feb - 18:50:34 10° ESE 18:52:32 10° ESE 18:54:34 10° ESE visible
20 Feb - 21:01:09 10° SSW 21:17:34 37° SE 21:39:22 10° E visible
20 Feb - 23:25:15 10° WSW 23:47:01 59° SSE 00:11:13 10° E visible
21 Feb - 01:53:54 10° W 02:18:42 59° SSW 02:39:26 10° ESE visible
21 Feb - 04:26:10 10° W 04:47:58 38° SW 05:03:27 10° SSE visible
21 Feb - 07:08:48 10° WSW 07:12:44 11° WSW 07:16:21 10° SW daylight
21 Feb - 19:52:19 10° S 20:05:21 26° SE 20:22:52 10° E visible
21 Feb - 22:13:41 10° SW 22:32:48 52° SSE 22:57:09 10° E visible
22 Feb - 00:40:25 10° WSW 01:04:01 62° S 01:27:07 10° ESE visible
22 Feb - 03:10:53 10° W 03:34:54 49° SSW 03:53:15 10° SE visible
22 Feb - 05:46:14 10° W 06:01:41 22° SW 06:13:27 10° S visible
22 Feb - 18:46:22 10° SSE 18:54:04 14° ESE 19:03:24 10° E visible
22 Feb - 21:03:07 10° SSW 21:19:26 42° SE 21:42:10 10° E visible
22 Feb - 23:27:50 10° WSW 23:49:16 61° S 00:13:54 10° E visible
23 Feb - 01:56:34 10° W 02:20:56 57° SSW 02:41:58 10° SE visible
23 Feb - 04:29:05 10° W 04:49:47 33° SW 05:05:16 10° SSE visible
23 Feb - 19:53:46 10° S 20:07:05 30° SE 20:26:05 10° E visible
23 Feb - 22:16:08 10° SW 22:34:56 55° SSE 22:59:48 10° E visible
24 Feb - 00:43:07 10° W 01:06:19 61° S 01:29:43 10° ESE visible
24 Feb - 03:13:37 10° W 03:36:53 44° SSW 03:55:25 10° SSE visible
24 Feb - 05:50:30 10° W 06:03:16 17° WSW 06:13:43 10° SSW visible
24 Feb - 18:46:16 10° SSE 18:55:42 19° SE 19:08:12 10° E visible
24 Feb - 21:05:23 10° SW 21:21:26 46° SSE 21:44:50 10° E visible
24 Feb - 23:30:32 10° WSW 23:51:35 62° S 00:16:30 10° ESE visible
25 Feb - 01:59:17 10° W 02:23:04 53° SSW 02:44:21 10° SE visible
25 Feb - 04:32:16 10° W 04:51:29 29° SW 05:06:40 10° S visible
25 Feb - 19:55:38 10° SSW 20:08:55 35° SE 20:29:00 10° E visible
25 Feb - 22:18:46 10° WSW 22:37:11 58° SSE 23:02:22 10° E visible
26 Feb - 00:45:53 10° W 01:08:36 59° SSW 01:32:11 10° ESE visible
26 Feb - 03:16:29 10° W 03:38:45 39° SW 03:57:18 10° SSE visible
26 Feb - 05:56:24 10° W 06:04:47 13° WSW 06:12:14 10° SW visible
26 Feb - 18:47:16 10° S 18:57:26 23° SE 19:11:57 10° E visible
26 Feb - 21:07:51 10° SW 21:23:34 50° SSE 21:47:25 10° E visible
26 Feb - 23:33:19 10° WSW 23:53:55 62° S 00:19:00 10° ESE visible
27 Feb - 02:02:06 10° W 02:25:07 49° SSW 02:46:30 10° SE visible
27 Feb - 04:35:52 10° W 04:53:06 24° SW 05:07:30 10° S visible
27 Feb - 17:42:49 10° SE 17:46:45 11° ESE 17:51:14 10° ESE daylight
27 Feb - 19:57:49 10° SSW 20:10:56 40° SE 20:31:43 10° E visible
27 Feb - 22:21:31 10° WSW 22:39:32 60° S 23:04:52 10° E visible
28 Feb - 00:48:43 10° W 01:10:49 56° SSW 01:34:30 10° SE visible
28 Feb - 03:19:33 10° W 03:40:32 34° SW 03:58:50 10° SSE visible
28 Feb - 18:48:54 10° S 18:59:18 27° SE 19:15:11 10° E visible
28 Feb - 21:10:30 10° SW 21:25:49 54° SSE 21:49:54 10° E visible
